{"data":{"norad_id":66092,"intl_designator":"2025-236G","name":"STARLINK-35527","alt_names":[],"object_type":"PAYLOAD","status":"ACTIVE","operator":null,"country":"US","launch_date":"2025-10-19","launch_site_code":"AFWTR","launch_vehicle":null,"mission":null,"orbit_class":"UNKNOWN","rcs_meters":null,"size_class":null,"mass_kg":null,"dimensions":null,"purposes":["comms"],"wikipedia_slug":null,"has_3d_model":false,"image_url":null,"decayed_at":null,"tle_current":{"epoch":"2026-05-25T03:46:51.873312Z","epoch_age_seconds":71558,"freshness":"FRESH","line1":"1 66092U 25236G   26145.15754483  .00020521  00000+0  61685-3 0  9994","line2":"2 66092  53.1609 108.5881 0000866  52.4869 307.6212 15.34397908 34652","mean_motion":15.34397908,"eccentricity":8.66e-5,"inclination_deg":53.1609,"raan_deg":108.5881,"arg_perigee_deg":52.4869,"mean_anomaly_deg":307.6212,"bstar":0.00061685,"rev_number":3465,"period_min":93.847886033484,"perigee_km":462.11704077577,"apogee_km":463.30187538231,"semimajor_km":6840.846458079,"source":"CELESTRAK","updated_at":"2026-05-25T13:38:21.027928Z"}}}